DW2537 Weather Reports


Display with metric or nautical units.
time (UTC)temp
F
wind
direction
speed
MPH
gust
MPH
rain 1hr
in
rain 24hr
in
rain mn
in
humidity
%
barometer
mb
20260509181019 68 276 0.0 6.0 0.00 0.00 0.00 62 1009.9
20260509180519 68 170 1.0 3.0 0.00 0.00 0.00 59 1010.1
20260509180039 68 101 0.0 2.0 0.00 0.00 0.00 63 1010.1
20260509175519 68 138 0.0 2.0 0.00 0.00 0.00 66 1010.3
20260509175018 67 0 0.0 2.0 0.00 0.00 0.00 65 1010.2
20260509174538 67 0 0.0 2.0 0.00 0.00 0.00 60 1010.1
20260509174022 67 207 0.0 2.0 0.00 0.00 0.00 63 1010.1
20260509173520 66 0 0.0 2.0 0.00 0.00 0.00 63 1010.2
20260509173033 66 252 0.0 2.0 0.00 0.00 0.00 64 1010.1
20260509172518 66 0 0.0 2.0 0.00 0.00 0.00 63 1010.2
20260509172020 66 0 0.0 2.0 0.00 0.00 0.00 64 1010.3
20260509171539 66 0 0.0 2.0 0.00 0.00 0.00 63 1010.3
20260509171017 66 234 0.0 2.0 0.00 0.00 0.00 64 1010.3
20260509170518 66 9 0.0 2.0 0.00 0.00 0.00 64 1010.4
20260509170039 66 0 0.0 2.0 0.00 0.00 0.00 64 1010.4
20260509165518 67 0 1.0 2.0 0.00 0.00 0.00 64 1010.3
20260509165019 67 57 0.0 2.0 0.00 0.00 0.00 65 1010.2
20260509164539 67 169 0.0 3.0 0.00 0.00 0.00 62 1010.2
20260509164019 68 198 1.0 3.0 0.00 0.00 0.00 57 1010.2
20260509163519 68 163 0.0 3.0 0.00 0.00 0.00 56 1010.2
20260509163034 68 99 0.0 8.0 0.00 0.00 0.00 59 1010.2
20260509162518 68 262 1.0 8.0 0.00 0.00 0.00 59 1010.2
20260509162018 68 167 1.0 8.0 0.00 0.00 0.00 56 1010.3
20260509161535 69 170 1.0 2.0 0.00 0.00 0.00 57 1010.4
20260509161019 69 215 0.0 4.0 0.00 0.00 0.00 58 1010.4
20260509160518 69 231 1.0 5.0 0.00 0.00 0.00 56 1010.5
20260509160039 68 169 1.0 5.0 0.00 0.00 0.00 58 1010.5
20260509155517 68 230 0.0 4.0 0.00 0.00 0.00 61 1010.6
20260509155017 68 0 1.0 4.0 0.00 0.00 0.00 60 1010.7
20260509154538 68 188 1.0 6.0 0.00 0.00 0.00 57 1010.7
20260509154019 68 111 2.0 6.0 0.00 0.00 0.00 56 1010.5
20260509153518 69 304 1.0 6.0 0.00 0.00 0.00 61 1010.6
20260509153039 68 188 2.0 6.0 0.00 0.00 0.00 58 1010.7
20260509152518 68 72 1.0 2.0 0.00 0.00 0.00 61 1010.8
20260509152019 67 278 1.0 2.0 0.00 0.00 0.00 59 1011.0
20260509151539 67 153 1.0 4.0 0.00 0.00 0.00 62 1011.0
20260509151019 66 351 0.0 4.0 0.00 0.00 0.00 59 1011.1
20260509150518 65 278 1.0 7.0 0.00 0.00 0.00 61 1011.2
20260509150038 65 252 1.0 7.0 0.00 0.00 0.00 64 1011.3
20260509145518 64 350 1.0 3.0 0.00 0.00 0.00 64 1011.3
20260509145018 64 198 0.0 5.0 0.00 0.00 0.00 65 1011.5
20260509144539 63 290 1.0 5.0 0.00 0.00 0.00 63 1011.5
20260509144019 63 0 0.0 3.0 0.00 0.00 0.00 68 1011.6
20260509143518 62 312 0.0 2.0 0.00 0.00 0.00 67 1011.7
20260509143039 62 175 0.0 5.0 0.00 0.00 0.00 68 1011.6
20260509142521 62 146 0.0 6.0 0.00 0.00 0.00 64 1011.6
20260509142019 62 236 0.0 6.0 0.00 0.00 0.00 65 1011.5
20260509141539 62 323 0.0 3.0 0.00 0.00 0.00 67 1011.5
20260509141020 62 214 1.0 6.0 0.00 0.00 0.00 66 1011.5
20260509140519 62 338 1.0 6.0 0.00 0.00 0.00 62 1011.5
20260509140039 62 162 1.0 4.0 0.00 0.00 0.00 67 1011.5
20260509135518 62 331 0.0 4.0 0.00 0.00 0.00 64 1011.5
20260509135016 62 215 1.0 5.0 0.00 0.00 0.00 68 1011.6
20260509134533 61 190 1.0 5.0 0.00 0.00 0.00 66 1011.6
20260509134019 61 174 1.0 4.0 0.00 0.00 0.00 69 1011.7
20260509133521 61 0 0.0 6.0 0.00 0.00 0.00 67 1011.6
20260509133040 61 69 1.0 6.0 0.00 0.00 0.00 68 1011.7
20260509132518 61 5 1.0 6.0 0.00 0.00 0.00 68 1011.7
20260509132018 61 80 1.0 5.0 0.00 0.00 0.00 67 1011.7
20260509131546 61 292 2.0 8.0 0.00 0.00 0.00 67 1011.5
20260509131018 61 176 2.0 11.0 0.00 0.00 0.00 67 1011.5
20260509130518 61 149 2.0 11.0 0.00 0.00 0.00 64 1011.5
20260509130054 61 18 2.0 8.0 0.00 0.00 0.00 67 1011.4
20260509125521 61 78 1.0 5.0 0.00 0.00 0.00 65 1011.3
20260509125019 60 325 1.0 3.0 0.00 0.00 0.00 69 1011.3
20260509124542 60 350 0.0 4.0 0.00 0.00 0.00 70 1011.3
20260509124018 60 0 1.0 5.0 0.00 0.00 0.00 70 1011.4
20260509123519 59 0 2.0 5.0 0.00 0.00 0.00 69 1011.3
20260509123033 59 352 1.0 3.0 0.00 0.00 0.00 70 1011.5
20260509122517 59 207 1.0 3.0 0.00 0.00 0.00 66 1011.3
20260509122017 59 215 0.0 4.0 0.00 0.00 0.00 66 1011.4
20260509121540 59 252 0.0 4.0 0.00 0.00 0.00 70 1011.5
20260509121019 59 220 0.0 6.0 0.00 0.00 0.00 67 1011.5
20260509120518 59 65 0.0 6.0 0.00 0.00 0.00 67 1011.5
20260509120039 58 219 2.0 6.0 0.00 0.00 0.00 67 1011.5
20260509115520 58 165 0.0 2.0 0.00 0.00 0.00 67 1011.5
20260509115019 58 111 0.0 2.0 0.00 0.00 0.00 71 1011.5
20260509114541 58 34 0.0 2.0 0.00 0.00 0.00 71 1011.5
20260509114018 58 0 0.0 5.0 0.00 0.00 0.00 71 1011.4
20260509113518 57 200 0.0 5.0 0.00 0.00 0.00 70 1011.4
20260509113041 57 200 1.0 8.0 0.00 0.00 0.00 70 1011.4
20260509112519 57 102 0.0 8.0 0.00 0.00 0.00 66 1011.3
20260509112020 57 43 0.0 2.0 0.00 0.00 0.00 67 1011.3
20260509111535 57 43 0.0 3.0 0.00 0.00 0.00 65 1011.3
20260509111018 57 0 0.0 3.0 0.00 0.00 0.00 66 1011.4
20260509110521 57 0 0.0 2.0 0.00 0.00 0.00 68 1011.3
20260509110035 57 0 0.0 2.0 0.00 0.00 0.00 67 1011.3
20260509105520 57 168 0.0 2.0 0.00 0.00 0.00 64 1011.3
20260509105021 56 76 0.0 2.0 0.00 0.00 0.00 63 1011.3
20260509104534 56 0 0.0 2.0 0.00 0.00 0.00 66 1011.2
20260509104018 56 85 0.0 3.0 0.00 0.00 0.00 63 1011.2
20260509103519 56 0 0.0 3.0 0.00 0.00 0.00 63 1011.1
20260509103039 56 192 0.0 2.0 0.00 0.00 0.00 65 1011.0
20260509102518 56 0 0.0 2.0 0.00 0.00 0.00 65 1011.0
20260509102019 56 0 0.0 2.0 0.00 0.00 0.00 65 1011.1
20260509101540 56 0 0.0 2.0 0.00 0.00 0.00 64 1011.1
20260509101019 56 0 0.0 1.0 0.00 0.00 0.00 65 1010.9
20260509100519 56 0 0.0 2.0 0.00 0.00 0.00 64 1010.9
20260509100035 56 0 0.0 2.0 0.00 0.00 0.00 64 1010.9
20260509095518 56 215 0.0 2.0 0.00 0.00 0.00 64 1010.9
20260509095019 56 0 0.0 2.0 0.00 0.00 0.00 65 1010.8
20260509094542 56 0 0.0 2.0 0.00 0.00 0.00 65 1010.9
20260509094018 56 213 0.0 2.0 0.00 0.00 0.00 62 1010.9
20260509093519 57 196 0.0 2.0 0.00 0.00 0.00 64 1010.9
20260509093034 57 0 0.0 2.0 0.00 0.00 0.00 64 1010.9
20260509092521 57 196 0.0 2.0 0.00 0.00 0.00 63 1011.0
20260509092018 57 0 0.0 2.0 0.00 0.00 0.00 63 1011.1
20260509091531 57 0 0.0 2.0 0.00 0.00 0.00 62 1011.0
20260509091015 57 0 0.0 2.0 0.00 0.00 0.00 63 1011.1
20260509090517 57 0 0.0 2.0 0.00 0.00 0.00 63 1010.9
20260509090032 57 146 0.0 2.0 0.00 0.00 0.00 63 1011.0
20260509085515 57 0 0.0 2.0 0.00 0.00 0.00 63 1011.0
20260509085015 57 0 0.0 2.0 0.00 0.00 0.00 59 1011.1
20260509084537 57 0 0.0 2.0 0.00 0.00 0.00 62 1011.3
20260509084022 57 266 0.0 2.0 0.00 0.00 0.00 60 1011.3
20260509083518 57 266 0.0 2.0 0.00 0.00 0.00 61 1011.4
20260509083038 57 0 0.0 2.0 0.00 0.00 0.00 62 1011.4
20260509082521 57 244 0.0 2.0 0.00 0.00 0.00 59 1011.4
20260509082019 57 0 0.0 3.0 0.00 0.00 0.00 62 1011.4
20260509081536 57 236 0.0 3.0 0.00 0.00 0.00 62 1011.6
20260509081016 57 171 0.0 2.0 0.00 0.00 0.00 59 1011.6
20260509080515 57 246 0.0 2.0 0.00 0.00 0.00 60 1011.6
20260509080039 56 271 0.0 2.0 0.00 0.00 0.00 61 1011.6
20260509075516 56 0 1.0 2.0 0.00 0.00 0.00 61 1011.6
20260509075015 56 336 0.0 2.0 0.00 0.00 0.00 62 1011.5
20260509074532 56 0 0.0 2.0 0.00 0.00 0.00 66 1011.6
20260509074015 55 268 0.0 4.0 0.00 0.00 0.00 67 1011.6
20260509073515 55 0 0.0 4.0 0.00 0.00 0.00 65 1011.6
20260509073035 55 22 1.0 2.0 0.00 0.00 0.00 65 1011.6
20260509072518 55 342 0.0 2.0 0.00 0.00 0.00 66 1011.6
20260509072014 55 248 0.0 2.0 0.00 0.00 0.00 66 1011.7
20260509071532 55 207 0.0 2.0 0.00 0.00 0.00 70 1011.7
20260509071018 54 0 0.0 2.0 0.00 0.00 0.00 70 1011.6
20260509070519 54 0 0.0 2.0 0.00 0.00 0.00 70 1011.7
20260509070033 54 257 0.0 2.0 0.00 0.00 0.00 71 1011.7
20260509065515 54 227 0.0 2.0 0.00 0.00 0.00 71 1011.7
20260509065015 54 0 0.0 2.0 0.00 0.00 0.00 68 1011.8
20260509064538 53 250 0.0 2.0 0.00 0.00 0.00 69 1011.9
20260509064018 53 0 0.0 2.0 0.00 0.00 0.00 69 1011.9
20260509063518 53 0 0.0 2.0 0.00 0.00 0.00 71 1011.9
20260509063038 53 0 0.0 2.0 0.00 0.00 0.00 73 1012.1
20260509062515 53 0 0.0 2.0 0.00 0.00 0.00 74 1012.1
20260509062016 53 232 0.0 2.0 0.00 0.00 0.00 70 1012.1
20260509061538 53 0 0.0 2.0 0.00 0.00 0.00 73 1012.0
20260509061019 53 0 0.0 2.0 0.00 0.00 0.00 73 1012.2
20260509060515 53 0 0.0 2.0 0.00 0.00 0.00 69 1012.2
20260509060033 53 232 0.0 3.0 0.00 0.00 0.00 73 1012.2
20260509055515 52 0 0.0 3.0 0.00 0.00 0.00 73 1012.2
20260509055015 52 228 0.0 2.0 0.00 0.00 0.00 73 1012.3
20260509054533 52 0 0.0 2.0 0.00 0.00 0.00 73 1012.2
20260509054017 52 0 0.0 2.0 0.00 0.00 0.00 73 1012.2
20260509053516 52 0 0.0 2.0 0.00 0.00 0.00 73 1012.2
20260509053032 52 0 0.0 2.0 0.00 0.00 0.00 73 1012.2
20260509052515 52 0 0.0 2.0 0.00 0.00 0.00 73 1012.3
20260509052018 52 0 0.0 2.0 0.00 0.00 0.00 72 1012.2
20260509051530 52 230 0.0 2.0 0.00 0.00 0.00 72 1012.1
20260509051015 52 0 0.0 2.0 0.00 0.00 0.00 72 1012.1
20260509050519 53 0 0.0 2.0 0.00 0.00 0.00 72 1012.2
20260509050056 53 0 0.0 2.0 0.00 0.00 0.00 72 1012.3
20260509045517 53 0 0.0 2.0 0.00 0.00 0.00 71 1012.3
20260509045018 53 0 0.0 2.0 0.00 0.00 0.00 71 1012.3
20260509044546 53 230 0.0 2.0 0.00 0.00 0.00 70 1012.3
20260509044016 53 0 0.0 2.0 0.00 0.00 0.00 70 1012.3
20260509043516 54 0 0.0 2.0 0.00 0.00 0.00 70 1012.4
20260509043034 54 0 0.0 2.0 0.00 0.00 0.00 69 1012.4
20260509042515 54 0 0.0 2.0 0.00 0.00 0.00 68 1012.3
20260509042016 54 0 0.0 2.0 0.00 0.00 0.00 68 1012.4
20260509041539 54 0 0.0 2.0 0.00 0.00 0.00 67 1012.2
20260509041016 54 0 0.0 2.0 0.00 0.00 0.00 67 1012.3
20260509040515 55 0 0.0 2.0 0.00 0.00 0.00 67 1012.3
20260509040033 55 232 0.0 2.0 0.00 0.00 0.00 67 1012.4
20260509035515 55 101 0.0 2.0 0.00 0.00 0.00 67 1012.4
20260509035017 55 80 0.0 2.0 0.00 0.00 0.00 66 1012.4
20260509034542 55 80 0.0 3.0 0.00 0.00 0.00 64 1012.4
20260509034018 55 69 0.0 3.0 0.00 0.00 0.00 67 1012.4
20260509033519 55 0 1.0 3.0 0.00 0.00 0.00 64 1012.4
20260509033033 55 63 0.0 3.0 0.00 0.00 0.00 64 1012.6
20260509032516 54 78 1.0 3.0 0.00 0.00 0.00 64 1012.7
20260509032017 54 49 0.0 2.0 0.00 0.00 0.00 65 1012.6
20260509031532 54 85 0.0 2.0 0.00 0.00 0.00 70 1012.7
20260509031016 54 0 0.0 2.0 0.00 0.00 0.00 70 1012.7
20260509030516 54 121 0.0 2.0 0.00 0.00 0.00 70 1012.7
20260509030038 55 0 0.0 0.0 0.00 0.00 0.00 70 1012.7
20260509025515 55 0 0.0 0.0 0.00 0.00 0.00 70 1012.7
20260509025015 55 0 0.0 0.0 0.00 0.00 0.00 71 1012.7
20260509024530 55 0 0.0 1.0 0.00 0.00 0.00 70 1012.6
20260509024015 56 0 0.0 1.0 0.00 0.00 0.00 70 1012.6
20260509023519 56 0 0.0 1.0 0.00 0.00 0.00 66 1012.5
20260509023039 56 0 0.0 2.0 0.00 0.00 0.00 69 1012.6
20260509022515 57 0 0.0 2.0 0.00 0.00 0.00 68 1012.6
20260509022018 57 121 0.0 2.0 0.00 0.00 0.00 66 1012.5
20260509021534 57 0 0.0 2.0 0.00 0.00 0.00 66 1012.6
20260509021016 58 0 0.0 2.0 0.00 0.00 0.00 65 1012.6
20260509020520 58 0 0.0 2.0 0.00 0.00 0.00 65 1012.5
20260509020032 58 0 0.0 2.0 0.00 0.00 0.00 64 1012.5
20260509015516 59 0 0.0 2.0 0.00 0.00 0.00 63 1012.5
20260509015015 59 0 0.0 2.0 0.00 0.00 0.00 62 1012.5
20260509014531 59 121 0.0 1.0 0.00 0.00 0.00 62 1012.6
20260509014015 60 0 0.0 1.0 0.00 0.00 0.00 61 1012.5
20260509013515 60 0 0.0 2.0 0.00 0.00 0.00 60 1012.5
20260509013031 61 0 0.0 2.0 0.00 0.00 0.00 59 1012.5
20260509012518 61 0 0.0 2.0 0.00 0.00 0.00 58 1012.5
20260509012018 61 0 0.0 2.0 0.00 0.00 0.00 57 1012.4
20260509011538 61 0 0.0 2.0 0.00 0.00 0.00 56 1012.5
20260509011018 62 0 0.0 2.0 0.00 0.00 0.00 55 1012.4
20260509010518 62 121 0.0 2.0 0.00 0.00 0.00 54 1012.4
20260509010033 62 0 0.0 2.0 0.00 0.00 0.00 53 1012.2
20260509005519 62 126 0.0 2.0 0.00 0.00 0.00 52 1012.2
20260509005016 62 232 0.0 2.0 0.00 0.00 0.00 50 1012.2
20260509004538 62 0 0.0 2.0 0.00 0.00 0.00 50 1012.1
20260509004018 62 0 0.0 2.0 0.00 0.00 0.00 49 1012.1
20260509003516 62 0 0.0 2.0 0.00 0.00 0.00 49 1012.0
20260509003034 62 234 0.0 2.0 0.00 0.00 0.00 45 1012.0
20260509002518 63 0 0.0 2.0 0.00 0.00 0.00 48 1011.9
20260509002015 63 234 0.0 2.0 0.00 0.00 0.00 48 1011.8
20260509001538 63 0 0.0 0.0 0.00 0.00 0.00 47 1011.7
20260509001016 63 0 0.0 2.0 0.00 0.00 0.00 47 1011.7
20260509000518 63 0 0.0 2.0 0.00 0.00 0.00 44 1011.6
20260509000041 63 0 0.0 2.0 0.00 0.00 0.00 47 1011.5
20260508235518 64 234 0.0 2.0 0.00 0.00 0.00 48 1011.5
20260508235018 64 0 0.0 2.0 0.00 0.00 0.00 48 1011.5
20260508234538 64 0 0.0 2.0 0.00 0.00 0.00 43 1011.5
20260508234018 64 232 0.0 2.0 0.00 0.00 0.00 45 1011.5
20260508233516 64 246 0.0 2.0 0.00 0.00 0.00 46 1011.4
20260508233030 64 216 0.0 2.0 0.00 0.00 0.00 48 1011.4
20260508232515 64 213 0.0 2.0 0.00 0.00 0.00 47 1011.4
20260508232016 65 0 0.0 2.0 0.00 0.00 0.00 44 1011.4
20260508231533 65 0 0.0 2.0 0.00 0.00 0.00 47 1011.4
20260508231016 65 0 0.0 2.0 0.00 0.00 0.00 45 1011.3
20260508230515 65 0 0.0 1.0 0.00 0.00 0.00 46 1011.3
20260508230041 65 0 0.0 1.0 0.00 0.00 0.00 45 1011.2
20260508225518 65 0 0.0 1.0 0.00 0.00 0.00 42 1011.1
20260508225015 65 0 0.0 2.0 0.00 0.00 0.00 42 1011.1
20260508224538 65 0 0.0 2.0 0.00 0.00 0.00 40 1011.1
20260508224018 65 0 0.0 2.0 0.00 0.00 0.00 43 1011.1
20260508223518 66 0 0.0 2.0 0.00 0.00 0.00 39 1011.2
20260508223038 66 210 0.0 2.0 0.00 0.00 0.00 39 1011.2
20260508222520 66 0 0.0 2.0 0.00 0.00 0.00 40 1011.2
20260508222018 66 213 0.0 2.0 0.00 0.00 0.00 41 1011.3
20260508221535 66 0 0.0 2.0 0.00 0.00 0.00 40 1011.3
20260508221018 66 263 0.0 2.0 0.00 0.00 0.00 41 1011.3
20260508220516 66 0 0.0 2.0 0.00 0.00 0.00 38 1011.3
20260508220038 66 263 0.0 2.0 0.00 0.00 0.00 37 1011.3
20260508215515 66 213 1.0 2.0 0.00 0.00 0.00 37 1011.2
20260508215015 67 0 0.0 2.0 0.00 0.00 0.00 40 1011.3
20260508214538 67 0 0.0 2.0 0.00 0.00 0.00 40 1011.3
20260508214015 67 209 0.0 8.0 0.00 0.00 0.00 35 1011.2
20260508213518 67 172 0.0 8.0 0.00 0.00 0.00 36 1011.2
20260508213038 67 190 1.0 8.0 0.00 0.00 0.00 38 1011.2
20260508212522 67 303 1.0 4.0 0.00 0.00 0.00 38 1011.2
20260508212018 67 0 0.0 8.0 0.00 0.00 0.00 35 1011.1
20260508211534 67 0 0.0 8.0 0.00 0.00 0.00 38 1011.2
20260508211018 67 163 1.0 7.0 0.00 0.00 0.00 38 1011.2
20260508210518 67 165 1.0 5.0 0.00 0.00 0.00 35 1011.2
20260508210033 67 218 1.0 5.0 0.00 0.00 0.00 36 1011.2
20260508205517 68 352 1.0 7.0 0.00 0.00 0.00 37 1011.2
20260508205016 68 225 2.0 8.0 0.00 0.00 0.00 34 1011.2
20260508204536 68 0 0.0 8.0 0.00 0.00 0.00 37 1011.2
20260508204015 68 148 1.0 8.0 0.00 0.00 0.00 37 1011.2
20260508203515 68 148 0.0 4.0 0.00 0.00 0.00 36 1011.2
20260508203038 68 190 1.0 4.0 0.00 0.00 0.00 35 1011.4
20260508202516 68 177 0.0 9.0 0.00 0.00 0.00 37 1011.5
20260508202015 68 198 2.0 9.0 0.00 0.00 0.00 31 1011.5
20260508201540 69 299 2.0 9.0 0.00 0.00 0.00 31 1011.7
20260508201021 69 143 1.0 8.0 0.00 0.00 0.00 33 1011.6
20260508200518 69 215 3.0 8.0 0.00 0.00 0.00 34 1011.6
20260508200035 68 0 1.0 6.0 0.00 0.00 0.00 35 1011.6
20260508195518 68 121 1.0 9.0 0.00 0.00 0.00 37 1011.7
20260508195015 68 111 2.0 9.0 0.00 0.00 0.00 31 1011.7
20260508194602 69 177 1.0 8.0 0.00 0.00 0.00 31 1011.9
20260508194015 69 184 3.0 9.0 0.00 0.00 0.00 30 1011.9
20260508193515 70 200 2.0 9.0 0.00 0.00 0.00 36 1012.1
20260508193040 70 352 1.0 7.0 0.00 0.00 0.00 32 1012.2
20260508192521 71 338 1.0 1.0 0.00 0.00 0.00 32 1012.3
20260508192019 71 65 0.0 1.0 0.00 0.00 0.00 30 1012.4
20260508191539 71 3.0 10.0 0.00 0.00 0.00 30 1012.4
20260508191018 71 68 3.0 10.0 0.00 0.00 0.00 30 1012.5
20260508190518 71 207 3.0 10.0 0.00 0.00 0.00 34 1012.6
20260508190039 71 224 2.0 10.0 0.00 0.00 0.00 30 1012.5
20260508185518 71 150 3.0 14.0 0.00 0.00 0.00 33 1012.6
20260508185018 71 127 4.0 14.0 0.00 0.00 0.00 31 1012.7
20260508184535 71 173 3.0 11.0 0.00 0.00 0.00 33 1012.7
20260508184017 71 339 3.0 12.0 0.00 0.00 0.00 34 1012.7
20260508183515 70 352 4.0 12.0 0.00 0.00 0.00 32 1012.7
20260508183032 70 186 3.0 9.0 0.00 0.00 0.00 37 1012.7
20260508182520 70 160 3.0 6.0 0.00 0.00 0.00 32 1012.8
20260508182020 69 81 2.0 10.0 0.00 0.00 0.00 35 1012.8
20260508181601 68 295 1.0 10.0 0.00 0.00 0.00 38 1012.8